AirNav   Air Wisconsin Up To $57,000 Bonus
 
 489 users online  

39T Tripp Creek Airport
St Johns, Michigan, USA

GOING TO ST JOHNS?


FAA INFORMATION EFFECTIVE 26 MARCH 2020

Location

FAA Identifier: 39T
Lat/Long: 43-03-53.1100N 084-29-20.9460W
43-03.885167N 084-29.349100W
43.0647528,-84.4891517
(estimated)
Elevation: 717 ft. / 218.5 m (surveyed)
Variation: 05W (1985)
From city: 6 miles NE of ST JOHNS, MI
Time zone: UTC -4 (UTC -5 during Standard Time)
Zip code: 48831

Airport Operations

Airport use: Open to the public
Activation date: 11/1977
Control tower: no
ARTCC: CLEVELAND CENTER
FSS: LANSING FLIGHT SERVICE STATION
NOTAMs facility: LAN (NOTAM-D service available)
Attendance: IREG
Wind indicator: yes
Segmented circle: no

Airport Communications

CTAF: 122.9
WX AWOS-3 at RNP (16 nm E): 118.025 (989-729-2967)
WX ASOS at LAN (18 nm S): 119.75 (517-908-8494)
WX AWOS-3 at AMN (18 nm NW): 124.175 (989-463-3433)

Nearby radio navigation aids

VOR radial/distance  VOR name  Freq  Var
FNTr286/33.1FLINT VORTAC116.9006W
MBSr216/33.3SAGINAW VOR/DME112.9003W
MOPr167/35.2MOUNT PLEASANT VOR/DME110.6005W

Airport Services

Parking: tiedowns
Airframe service: NONE
Powerplant service: NONE

Runway Information

Runway 9/27

Dimensions: 2509 x 50 ft. / 765 x 15 m
Surface: turf, in good condition
Runway edge markings: RY 09 /27 & DSPLCD THLDS MKD WITH 3 FT YELLOW CONES.
RUNWAY 9  RUNWAY 27
Traffic pattern: leftleft
Displaced threshold: 280 ft.425 ft.
Obstructions: 15 ft. road, 20 ft. from runway18 ft. road, 65 ft. from runway, 3:1 slope to clear

Airport Ownership and Management from official FAA records

Ownership: Privately-owned
Owner: ROBERT G. PARKER
5153 N. CHANDLER RD
ELSIE, MI 48831
Phone 989-862-4413
Manager: ROBERT G. PARKER
5153 N. CHANDLER RD
ELSIE, MI 48831
Phone 989-862-4413

Airport Operational Statistics

Aircraft based on the field: 5
Single engine airplanes: 5
    
Aircraft operations: avg 21/month *
50% transient general aviation
50% local general aviation
* for 12-month period ending 31 December 2017

Additional Remarks

SNOW REMOVAL IREG - CONFIRM ARPT COND WITH ARPT MGR - CALL 989-862-4413.
DEER ON & INVOF ARPT.
FOR CD CTC KALAMAZOO APCH AT 269-459-3345, WHEN APCH CLSD CTC CLEVELAND ARTCC AT 440-774-0224, IF UNA CTC 440-774-0490.

Instrument Procedures

There are no published instrument procedures at 39T.

Some nearby airports with instrument procedures:

KRNP - Owosso Community Airport (16 nm E)
KLAN - Capital Region International Airport (18 nm S)
KAMN - Gratiot Community Airport (18 nm NW)
4D0 - Abrams Municipal Airport (20 nm SW)
Y70 - Ionia County Airport (26 nm W)
 
Loc | Ops | Rwys | IFR | FBO | Links
Com | Nav | Svcs | Stats | Notes
Area around 39T (Tripp Creek Airport)
 
Road maps at: MapQuest Bing Google
 
Aerial photo
WARNING: Photo may not be current or correct
Aerial photo of 39T (Tripp Creek Airport)
Photo by Ren Wall

Do you have a better or more recent aerial photo of Tripp Creek Airport that you would like to share? If so, please send us your photo.

 
Sectional chart

 
Airport distance calculator
Flying to Tripp Creek Airport? Find the distance to fly.

From to 39T

Sunrise and sunset
Times for 07-Apr-2020
 Local
(UTC-4)
 Zulu
(UTC)
Morning civil twilight06:4010:40
Sunrise07:0911:09
Sunset20:1100:11
Evening civil twilight20:4000:40

Current date and time
Zulu (UTC)  07-Apr-2020 11:39:54
Local (UTC-4)  07-Apr-2020 07:39:54
 
METAR
KRNP 
16nm E 
071116Z AUTO 16003KT 10SM OVC025 07/00 A2987 RMK AO2 T00701002
KAMN 
17nm NW 
071115Z AUTO 15006KT 10SM OVC027 09/04 A2987 RMK AO2 T00900041
KLAN 
17nm S 
071102Z 13005KT 8SM -RA SCT026 SCT039 OVC060 07/03 A2985 RMK AO2 P0001 T00720028
TAF
KLAN 
17nm S 
070920Z 0709/0806 16007KT P6SM OVC028 FM071200 13004KT 6SM BR OVC020 FM071400 16006KT 5SM BR VCSH OVC009 FM072100 23010KT P6SM BKN035 FM080000 24008KT P6SM VCTS OVC050CB
NOTAMs
Click for the latest NOTAMs
NOTAMs are issued by the DoD/FAA and will open in a separate window not controlled by AirNav.

 

 
 

Would you like to see your business listed on this page?

 If your business provides an interesting product or service to pilots, flight crews, aircraft, or users of the Tripp Creek Airport, you should consider listing it here.  To start the listing process, click on the button below
 
Add a business
 

Other Pages about Tripp Creek Airport

Page from the Michigan Airport Directory (PDF)
 
Update a link
 
Copyright © AirNav, LLC. All rights reserved. Privacy Policy  Contact